Home > Weather > Whitstable > Past weeks

Flag for United Kingdom Past Weather in Whitstable, England, United Kingdom — Yesterday and Last 2 Weeks

Now
60 °F

Cool.


Feels Like: 58 °F
Forecast: 52 / 60 °F
Wind: 9 mph from East

Location: Manston

Current Time: May 26, 2016 at 1:42:05 PM

Latest Report: May 26, 2016 at 1:00 PM


Visibility: 28 mi

Pressure: 30.03 "Hg

Humidity: 71%

Dew Point: 50 °F

Location of WhitstableLocation

Past Weather in Whitstable — Graph

°F

Whitstable Temperature Yesterday

Maximum temperature yesterday: 54 °F (at 4:00 PM)
Minimum temperature yesterday: 48 °F (at 5:00 AM)
Average temperature yesterday: 50 °F

High & Low Weather Summary for the Past Weeks

 TemperatureHumidityPressure
High67 °F (May 20, 2:00 PM)100% (May 19, 4:00 AM)30.22 "Hg (May 19, 4:00 AM)
Low38 °F (May 15, 4:00 AM)54% (May 15, 5:00 PM)29.54 "Hg (May 12, 5:00 AM)
Average54 °F84%29.93 "Hg
* Reported May 11 12:00 PM — May 26 12:00 PM, Whitstable, Weather by CustomWeather, © 2016

Note: Actual official high and low records may vary slightly from our data, if they occured in-between our weather recording intervals... More about our weather records

Advertising

Whitstable Weather History for the Previous 24 Hours

Scroll right to see more
 ConditionsComfort  
Time TempWeatherWind HumidityBarometerVisibility
12:00 PM
Thu, May 26
60 °FCool.8 mph75%30.03 "Hg12 mi
11:00 AM58 °FCool.8 mph71%30.03 "Hg13 mi
9:00 AM56 °FCool.5 mph82%30.03 "Hg9 mi
8:00 AM53 °FCool.3 mph94%30.03 "Hg9 mi
7:00 AM50 °FCool.1 mph100%30.02 "Hg7 mi
6:00 AM46 °FFog.No wind100%30.02 "Hg3 mi
5:00 AM47 °FCool.2 mph100%30.02 "Hg10 mi
4:00 AM44 °FFog.3 mph100%30.01 "Hg2 mi
3:00 AM46 °FFog.5 mph100%30.01 "Hg4 mi
2:00 AM47 °FFog.3 mph100%30.01 "Hg5 mi
1:00 AM47 °FFog.3 mph99%30.01 "Hg3 mi
12:00 AM49 °FCool.1 mph96%30.01 "Hg17 mi
11:00 PM
Wed, May 25
49 °FCool.6 mph95%30.01 "Hg17 mi
10:00 PM51 °FCool.3 mph97%30.02 "Hg12 mi
9:00 PM51 °FCool.5 mph96%30.02 "Hg9 mi
8:00 PM52 °FLight rain. Cloudy.5 mph91%30.01 "Hg9 mi
7:00 PM53 °FCool.3 mph84%30.01 "Hg14 mi
5:00 PM54 °FCool.3 mph80%30.01 "Hg15 mi
4:00 PM54 °FCool.6 mph82%30.01 "Hg12 mi
3:00 PM54 °FCool.8 mph81%30.01 "Hg16 mi
2:00 PM52 °FCool.9 mph85%30.02 "Hg11 mi
1:00 PM51 °FCool.8 mph88%30.03 "Hg12 mi
Weather by CustomWeather, © 2016

See weather overviewHow to use our weather pages